The Dalles, WA

12:27 AM PDT on March 30, 2017 (GMT -0700)
Columbia Gorge Regional-The Dalles

Weather History for KDLS - June, 2013

Change the Weather History Date:

Tuesday, June 25, 2013

  Actual Average Record
Temperature  
Mean Temperature 62 °F -  
Max Temperature 69 °F 84 °F 100 °F (1968)
Min Temperature 57 °F 56 °F 43 °F (2001)
Degree Days  
Heating Degree Days 2    
Growing Degree Days 12 (Base 50)    
Moisture  
Dew Point 56 °F    
Average Humidity 83    
Maximum Humidity 94    
Minimum Humidity 63    
Precipitation  
Precipitation 0.80 in - - ()
Sea Level Pressure  
Sea Level Pressure 29.78 in    
Wind  
Wind Speed 3 mph (WNW)    
Max Wind Speed 10 mph    
Max Gust Speed -    
Visibility 8 miles    
Events Rain    
Averages and records for this station are not official NWS values.
T = Trace of Precipitation, MM = Missing Value Source: NWS Daily Summary

Daily Weather History Graph

Daily Weather History Graph

Search for Another Location

Airport or City:

Trip Planner

Search our weather history database for the weather conditions in past years. The results will help you decide how hot, cold, wet, or windy it might be!

Date:

Astronomy

Jun. 25, 2013 Rise Set
Actual Time 5:16 AM PDT 8:58 PM PDT
Civil Twilight 4:38 AM PDT 9:36 PM PDT
Nautical Twilight 3:47 AM PDT 10:27 PM PDT
Astronomical Twilight 2:37 AM PDT 11:36 PM PDT
Moon 10:35 PM PDT (6/25) 8:11 AM PDT (6/25)
Length of Visible Light 16h 57m
Length of Day
15h 41m
Waning Gibbous, 92% of the Moon is Illuminated
Jun 25
Waning Gibbous
Jun 29
Last Quarter
Jul 8
New
Jul 15
First Quarter
Jul 22
Full

Hourly Weather History & Observations

Time (PDT) Temp. Dew Point Humidity Pressure Visibility Wind Dir Wind Speed Gust Speed Precip Events Conditions
12:53 AM 61.0 °F 52.0 °F 72% 29.71 in 10.0 mi North 3.5 mph - 0.00 in   Overcast
1:53 AM 59.0 °F 53.1 °F 81% 29.71 in 10.0 mi WNW 4.6 mph - N/A   Partly Cloudy
2:53 AM 59.0 °F 53.1 °F 81% 29.71 in 10.0 mi Calm Calm - N/A   Mostly Cloudy
3:53 AM 57.9 °F 54.0 °F 87% 29.72 in 7.0 mi Calm Calm - 0.01 in Rain Light Rain
4:53 AM 57.0 °F 55.0 °F 93% 29.74 in 5.0 mi Variable 3.5 mph - 0.18 in Rain Light Rain
5:53 AM 57.0 °F 55.0 °F 93% 29.74 in 10.0 mi ESE 4.6 mph - 0.02 in   Overcast
6:53 AM 57.9 °F 55.9 °F 93% 29.76 in 10.0 mi Calm Calm - N/A   Mostly Cloudy
7:42 AM 57.2 °F 55.4 °F 94% 29.76 in 10.0 mi Calm Calm - 0.03 in   Overcast
7:53 AM 59.0 °F 55.9 °F 90% 29.76 in 10.0 mi Calm Calm - 0.03 in   Overcast
8:21 AM 59.0 °F 55.4 °F 88% 29.77 in 10.0 mi North 3.5 mph - N/A   Overcast
8:53 AM 60.1 °F 55.9 °F 86% 29.77 in 10.0 mi Calm Calm - N/A   Overcast
9:17 AM 59.0 °F 55.4 °F 88% 29.78 in 1.8 mi Calm Calm - 0.06 in Rain Light Rain
9:41 AM 57.2 °F 55.4 °F 94% 29.79 in 1.2 mi West 3.5 mph - 0.21 in Rain Rain
9:53 AM 57.9 °F 55.0 °F 90% 29.79 in 0.8 mi WNW 3.5 mph - 0.33 in Rain Heavy Rain
10:01 AM 57.2 °F 55.4 °F 94% 29.78 in 1.2 mi Calm Calm - 0.05 in Rain Rain
10:14 AM 57.2 °F 55.4 °F 94% 29.78 in 3.0 mi Calm Calm - 0.09 in Rain Light Rain
10:53 AM 60.1 °F 55.9 °F 86% 29.79 in 10.0 mi ESE 3.5 mph - 0.11 in Rain Light Rain
11:53 AM 62.1 °F 55.9 °F 80% 29.80 in 10.0 mi Calm Calm - 0.00 in   Overcast
12:53 PM 64.0 °F 57.9 °F 80% 29.80 in 10.0 mi Calm Calm - 0.00 in   Overcast
1:53 PM 66.0 °F 59.0 °F 78% 29.79 in 10.0 mi WSW 3.5 mph - 0.01 in   Overcast
2:53 PM 68.0 °F 55.0 °F 63% 29.78 in 10.0 mi Calm Calm - N/A   Scattered Clouds
3:53 PM 66.9 °F 55.9 °F 68% 29.78 in 10.0 mi West 5.8 mph - 0.00 in Rain Light Rain
4:12 PM 64.4 °F 57.2 °F 77% 29.79 in 1.8 mi West 9.2 mph - 0.07 in Rain Rain
4:18 PM 62.6 °F 59.0 °F 88% 29.79 in 3.0 mi WNW 4.6 mph - 0.08 in Rain Light Rain
4:53 PM 63.0 °F 57.9 °F 84% 29.80 in 10.0 mi WSW 10.4 mph - 0.09 in Rain Light Rain
5:53 PM 63.0 °F 59.0 °F 87% 29.81 in 10.0 mi NW 10.4 mph - 0.02 in   Overcast
6:53 PM 64.9 °F 57.9 °F 78% 29.81 in 10.0 mi NW 6.9 mph - N/A   Partly Cloudy
7:53 PM 64.0 °F 57.0 °F 78% 29.83 in 10.0 mi Calm Calm - N/A   Overcast
8:53 PM 63.0 °F 54.0 °F 72% 29.84 in 10.0 mi WNW 4.6 mph - N/A   Overcast
9:53 PM 63.0 °F 53.1 °F 70% 29.86 in 10.0 mi WNW 5.8 mph - N/A   Overcast
10:53 PM 61.0 °F 54.0 °F 78% 29.87 in 10.0 mi Calm Calm - N/A   Scattered Clouds
11:53 PM 59.0 °F 55.0 °F 87% 29.88 in 10.0 mi WNW 5.8 mph - N/A   Scattered Clouds